• In Portugal
  • List of Countries
  • For 7 days
  • Water Temperature
  • Satellite Maps
  • Weather Map
  • Weather Widgets
  • user-avatar
    Login

    Hourly Weather Fedoseevskiy

    Today, 21 July, Saturday

    Time Temperature Precipitation Wind Pressure Humidity
    00:00 +18°C° 0.1 mm 0 mps 737 mmHg 92%
    01:00 +18°C° 0.1 mm 0 mps 737 mmHg 92%
    02:00 +18°C° 0.1 mm 0 mps 737 mmHg 92%
    03:00 +20°C° 0.1 mm 1 mps 737 mmHg 92%
    04:00 +20°C° 0.1 mm 1 mps 737 mmHg 93%
    05:00 +20°C° 0.1 mm 1 mps 737 mmHg 93%
    06:00 +21°C° 0.6 mm 1 mps 738 mmHg 92%
    07:00 +20°C° 0.6 mm 2 mps 738 mmHg 91%
    08:00 +21°C° 0.6 mm 2 mps 738 mmHg 90%
    09:00 +23°C° 0.8 mm 2 mps 738 mmHg 88%
    10:00 +24°C° 0.8 mm 2 mps 738 mmHg 85%
    11:00 +24°C° 0.8 mm 2 mps 738 mmHg 82%
    12:00 +25°C° 1.4 mm 2 mps 738 mmHg 80%
    13:00 +26°C° 1.4 mm 2 mps 738 mmHg 78%
    14:00 +26°C° 1.4 mm 2 mps 738 mmHg 76%
    15:00 +26°C° 1.3 mm 2 mps 737 mmHg 78%
    16:00 +26°C° 1.3 mm 2 mps 737 mmHg 80%
    17:00 +26°C° 1.3 mm 2 mps 737 mmHg 82%
    18:00 +24°C° 0.2 mm 2 mps 737 mmHg 85%
    19:00 +23°C° 0.2 mm 2 mps 737 mmHg 88%
    20:00 +22°C° 0.2 mm 1 mps 737 mmHg 91%
    21:00 +21°C° 0 mm 1 mps 737 mmHg 92%
    22:00 +21°C° 0 mm 1 mps 737 mmHg 93%
    23:00 +20°C° 0 mm 1 mps 737 mmHg 93%

    Tomorrow, 22 July, Sunday

    Time Temperature Precipitation Wind Pressure Humidity
    00:00 +20°C° 0 mm 1 mps 737 mmHg 94%
    01:00 +20°C° 0 mm 1 mps 737 mmHg 94%
    02:00 +20°C° 0 mm 1 mps 737 mmHg 94%
    03:00 +20°C° 0.2 mm 1 mps 737 mmHg 95%
    04:00 +20°C° 0.2 mm 1 mps 737 mmHg 95%
    05:00 +20°C° 0.2 mm 1 mps 737 mmHg 95%
    06:00 +21°C° 0.3 mm 2 mps 737 mmHg 91%
    07:00 +23°C° 0.3 mm 2 mps 738 mmHg 87%
    08:00 +24°C° 0.3 mm 2 mps 738 mmHg 83%
    09:00 +25°C° 0.4 mm 2 mps 738 mmHg 79%
    10:00 +26°C° 0.4 mm 2 mps 738 mmHg 76%
    11:00 +27°C° 0.4 mm 3 mps 738 mmHg 72%
    12:00 +27°C° 0.9 mm 3 mps 738 mmHg 75%
    13:00 +27°C° 0.9 mm 4 mps 737 mmHg 77%
    14:00 +26°C° 0.9 mm 4 mps 737 mmHg 79%
    15:00 +26°C° 0.5 mm 4 mps 737 mmHg 81%
    16:00 +26°C° 0.5 mm 5 mps 737 mmHg 83%
    17:00 +25°C° 0.5 mm 5 mps 737 mmHg 86%
    18:00 +23°C° 0.7 mm 5 mps 737 mmHg 88%
    19:00 +22°C° 0.7 mm 5 mps 738 mmHg 90%
    20:00 +21°C° 0.7 mm 5 mps 738 mmHg 92%
    21:00 +21°C° 0.5 mm 5 mps 738 mmHg 93%
    22:00 +21°C° 0.5 mm 5 mps 738 mmHg 94%
    23:00 +20°C° 0.5 mm 5 mps 738 mmHg 95%

    Day after tomorrow, 23 July, Monday

    Time Temperature Precipitation Wind Pressure Humidity
    00:00 +20°C° 0.2 mm 4 mps 738 mmHg 95%
    01:00 +20°C° 0.2 mm 4 mps 738 mmHg 95%
    02:00 +20°C° 0.2 mm 4 mps 738 mmHg 95%
    03:00 +20°C° 0.1 mm 4 mps 738 mmHg 95%
    04:00 +20°C° 0.1 mm 4 mps 738 mmHg 94%
    05:00 +20°C° 0.1 mm 5 mps 738 mmHg 94%
    06:00 +20°C° 0.1 mm 4 mps 738 mmHg 94%
    07:00 +20°C° 0.1 mm 4 mps 738 mmHg 94%
    08:00 +20°C° 0.1 mm 4 mps 738 mmHg 93%
    09:00 +20°C° 0.2 mm 4 mps 738 mmHg 93%
    10:00 +20°C° 0.2 mm 4 mps 738 mmHg 92%
    11:00 +21°C° 0.2 mm 4 mps 738 mmHg 91%
    12:00 +21°C° 0.1 mm 4 mps 738 mmHg 90%
    13:00 +21°C° 0.1 mm 5 mps 738 mmHg 89%
    14:00 +22°C° 0.1 mm 5 mps 738 mmHg 88%
    15:00 +22°C° 0.1 mm 5 mps 738 mmHg 88%
    16:00 +22°C° 0.1 mm 4 mps 738 mmHg 88%
    17:00 +22°C° 0.1 mm 4 mps 738 mmHg 87%
    18:00 +22°C° 0.5 mm 4 mps 738 mmHg 89%
    19:00 +21°C° 0.5 mm 4 mps 738 mmHg 91%
    20:00 +21°C° 0.5 mm 4 mps 738 mmHg 93%
    21:00 +20°C° 0 mm 4 mps 738 mmHg 94%
    22:00 +20°C° 0 mm 3 mps 738 mmHg 95%
    23:00 +20°C° 0 mm 3 mps 738 mmHg 96%

    24 July, Tuesday

    Time Temperature Precipitation Wind Pressure Humidity
    00:00 +19°C° 0 mm 3 mps 738 mmHg 97%
    01:00 +19°C° 0 mm 3 mps 738 mmHg 97%
    02:00 +19°C° 0 mm 3 mps 738 mmHg 97%
    03:00 +19°C° 0 mm 3 mps 738 mmHg 97%
    04:00 +19°C° 0 mm 3 mps 739 mmHg 96%
    05:00 +19°C° 0 mm 3 mps 739 mmHg 96%
    06:00 +20°C° 0.1 mm 3 mps 739 mmHg 92%
    07:00 +22°C° 0.1 mm 3 mps 739 mmHg 88%
    08:00 +24°C° 0.1 mm 3 mps 739 mmHg 84%
    09:00 +26°C° 0.4 mm 3 mps 739 mmHg 78%
    10:00 +27°C° 0.4 mm 3 mps 740 mmHg 72%
    11:00 +28°C° 0.4 mm 3 mps 740 mmHg 66%
    12:00 +28°C° 0.3 mm 3 mps 740 mmHg 66%
    13:00 +28°C° 0.3 mm 3 mps 739 mmHg 65%
    14:00 +29°C° 0.3 mm 3 mps 739 mmHg 65%
    15:00 +28°C° 0.5 mm 3 mps 739 mmHg 70%
    16:00 +27°C° 0.5 mm 3 mps 740 mmHg 75%
    17:00 +27°C° 0.5 mm 3 mps 740 mmHg 81%
    18:00 +25°C° 0.3 mm 3 mps 740 mmHg 84%
    19:00 +24°C° 0.3 mm 3 mps 740 mmHg 88%
    20:00 +21°C° 0.3 mm 3 mps 740 mmHg 91%
    21:00 +21°C° 0.3 mm 3 mps 740 mmHg 92%
    22:00 +20°C° 0.3 mm 3 mps 740 mmHg 92%
    23:00 +20°C° 0.3 mm 3 mps 740 mmHg 92%

    25 July, Wednesday

    Time Temperature Precipitation Wind Pressure Humidity
    00:00 +20°C° 0.2 mm 3 mps 740 mmHg 93%
    01:00 +19°C° 0.2 mm 3 mps 740 mmHg 94%
    02:00 +19°C° 0.2 mm 3 mps 740 mmHg 95%
    03:00 +19°C° 0.2 mm 3 mps 741 mmHg 95%
    04:00 +19°C° 0.2 mm 3 mps 741 mmHg 96%
    05:00 +19°C° 0.2 mm 3 mps 741 mmHg 96%
    06:00 +19°C° 0.2 mm 3 mps 741 mmHg 95%
    07:00 +20°C° 0.2 mm 3 mps 741 mmHg 94%
    08:00 +20°C° 0.2 mm 3 mps 741 mmHg 93%
    09:00 +21°C° 0.3 mm 3 mps 741 mmHg 90%
    10:00 +22°C° 0.3 mm 3 mps 741 mmHg 87%
    11:00 +24°C° 0.3 mm 3 mps 741 mmHg 85%
    12:00 +25°C° 0.5 mm 3 mps 741 mmHg 81%
    13:00 +26°C° 0.5 mm 4 mps 741 mmHg 76%
    14:00 +27°C° 0.5 mm 4 mps 741 mmHg 72%
    15:00 +27°C° 0.3 mm 4 mps 741 mmHg 74%
    16:00 +27°C° 0.3 mm 3 mps 742 mmHg 76%
    17:00 +27°C° 0.3 mm 3 mps 742 mmHg 78%
    18:00 +25°C° 0.3 mm 3 mps 742 mmHg 82%
    19:00 +24°C° 0.3 mm 3 mps 742 mmHg 85%
    20:00 +22°C° 0.3 mm 3 mps 742 mmHg 89%
    21:00 +21°C° 0.3 mm 3 mps 742 mmHg 91%
    22:00 +21°C° 0.3 mm 3 mps 743 mmHg 92%
    23:00 +20°C° 0.3 mm 3 mps 743 mmHg 93%

    26 July, Thursday

    Time Temperature Precipitation Wind Pressure Humidity
    00:00 +20°C° 0.1 mm 3 mps 743 mmHg 94%
    01:00 +20°C° 0.1 mm 3 mps 743 mmHg 94%
    02:00 +19°C° 0.1 mm 3 mps 743 mmHg 95%
    03:00 +19°C° 0.1 mm 3 mps 744 mmHg 95%
    04:00 +19°C° 0.1 mm 3 mps 744 mmHg 95%
    05:00 +20°C° 0.1 mm 3 mps 744 mmHg 95%
    06:00 +21°C° 0.1 mm 3 mps 744 mmHg 91%
    07:00 +22°C° 0.1 mm 3 mps 744 mmHg 88%
    08:00 +25°C° 0.1 mm 4 mps 745 mmHg 84%
    09:00 +26°C° 0.6 mm 4 mps 745 mmHg 81%
    10:00 +27°C° 0.6 mm 4 mps 745 mmHg 77%
    11:00 +28°C° 0.6 mm 4 mps 745 mmHg 73%
    12:00 +28°C° 0.2 mm 4 mps 745 mmHg 71%
    13:00 +29°C° 0.2 mm 4 mps 745 mmHg 70%
    14:00 +29°C° 0.2 mm 4 mps 745 mmHg 68%
    15:00 +29°C° 0.1 mm 4 mps 745 mmHg 71%
    16:00 +28°C° 0.1 mm 4 mps 745 mmHg 74%
    17:00 +28°C° 0.1 mm 3 mps 745 mmHg 78%
    18:00 +26°C° 0.2 mm 3 mps 745 mmHg 82%
    19:00 +25°C° 0.2 mm 3 mps 745 mmHg 86%
    20:00 +24°C° 0.2 mm 3 mps 745 mmHg 90%
    21:00 +22°C° 0 mm 3 mps 746 mmHg 91%
    22:00 +22°C° 0 mm 3 mps 746 mmHg 92%
    23:00 +22°C° 0 mm 3 mps 746 mmHg 93%
    Show more